Starlink 30496

operational
NORAD ID: 57919 Int'l Des: 2023-147 Owner: SPXS Country: US Constellation: starlink
LEOCIRCULAR

About Starlink 30496

Description loading...

Live Position

Loading 3D Globe...

Upcoming Passes

Altitude History

Altitude vs Time

uPlot chart will show altitude changes over time

Two-Line Element Set

1 57919U 23147G 26094.29285058 .00006222 00000-0 23546-3 0 9993
2 57919 43.0036 180.6163 0001282 277.4607 82.6099 15.27576746140548
Epoch: Apr 4, 2026 • Age: 5 hours

Current Status

Altitude 483.0 km
Velocity 7.63 km/s
Sub-Earth Point 20.48°N, 42.75°W
Launch Date Sep 24, 2023
Age 2.5 years
Type internet

Technical Details

Classification Payload
Mass 730.00 kg
Dry Mass 700.00 kg
Total Mass 730.00 kg
Length 0.30 m
Diameter 4.10 m
Span 29.00 m
Shape Box + pan
Manufacturer SPXS
Bus Type Starlink V2M
Phase Status In Orbit
Owner/State SPXS/US

Large Constellations

Loading constellations...